| time (UTC) | temp F | wind direction | speed knots | gust knots | rain 1hr in | rain 24hr in | rain mn in | humidity % | barometer mb |
| 20260506184525 | 32 | 117 | 0.0 | 3.5 | 0.07 | 0.19 | 0.14 | 87 | 1022.8 |
| 20260506183020 | 32 | 73 | 0.9 | 2.6 | 0.06 | 0.17 | 0.12 | 87 | 1022.9 |
| 20260506181518 | 32 | 22 | 0.0 | 1.7 | 0.05 | 0.15 | 0.10 | 90 | 1023.0 |
| 20260506180021 | 33 | 346 | 0.0 | 2.6 | 0.04 | 0.14 | 0.09 | 92 | 1023.0 |
| 20260506174522 | 33 | 330 | 0.0 | 0.9 | 0.03 | 0.12 | 0.07 | 93 | 1023.0 |
| 20260506173009 | 32 | 360 | 0.0 | 1.7 | 0.02 | 0.11 | 0.06 | 93 | 1022.9 |
| 20260506171508 | 32 | 306 | 0.0 | 1.7 | 0.02 | 0.10 | 0.05 | 93 | 1022.9 |
| 20260506170004 | 31 | 360 | 0.0 | 3.5 | 0.03 | 0.10 | 0.05 | 93 | 1022.8 |
| 20260506164503 | 31 | 307 | 0.0 | 4.3 | 0.02 | 0.10 | 0.04 | 93 | 1022.6 |
| 20260506163108 | 32 | 327 | 0.0 | 0.0 | 0.02 | 0.10 | 0.04 | 94 | 1022.2 |
| 20260506161558 | 31 | 325 | 0.0 | 0.0 | 0.02 | 0.09 | 0.03 | 94 | 1021.9 |
| 20260506160108 | 31 | 325 | 0.0 | 0.0 | 0.01 | 0.08 | 0.02 | 93 | 1021.7 |
| 20260506154555 | 31 | 360 | 0.0 | 0.0 | 0.01 | 0.09 | 0.02 | 94 | 1021.8 |
| 20260506153055 | 31 | 325 | 0.0 | 0.0 | 0.02 | 0.09 | 0.02 | 94 | 1021.7 |
| 20260506151552 | 31 | 360 | 0.0 | 0.0 | 0.01 | 0.08 | 0.01 | 94 | 1021.5 |
| 20260506150054 | 31 | 360 | 0.0 | 0.0 | 0.01 | 0.08 | 0.01 | 94 | 1021.4 |
| 20260506144559 | 31 | 360 | 0.0 | 0.0 | 0.01 | 0.12 | 0.01 | 94 | 1021.2 |
| 20260506143048 | 31 | 360 | 0.0 | 0.0 | 0.00 | 0.11 | 0.00 | 94 | 1021.2 |
| 20260506141547 | 30 | 360 | 0.0 | 0.0 | 0.00 | 0.11 | 0.00 | 94 | 1020.9 |
| 20260506140044 | 30 | 360 | 0.0 | 0.0 | 0.00 | 0.11 | 0.00 | 93 | 1020.9 |
| 20260506134543 | 30 | 326 | 0.0 | 0.0 | 0.00 | 0.13 | 0.00 | 93 | 1020.9 |
| 20260506133040 | 30 | 360 | 0.0 | 0.0 | 0.00 | 0.13 | 0.00 | 94 | 1020.6 |
| 20260506131543 | 31 | 360 | 0.0 | 0.0 | 0.00 | 0.13 | 0.00 | 94 | 1020.4 |
| 20260506130035 | 31 | 360 | 0.0 | 0.0 | 0.00 | 0.13 | 0.00 | 94 | 1019.9 |
| 20260506124535 | 31 | 360 | 0.0 | 0.0 | 0.00 | 0.13 | 0.00 | 94 | 1019.7 |
| 20260506123032 | 30 | 360 | 0.0 | 0.0 | 0.00 | 0.13 | 0.00 | 94 | 1019.4 |
| 20260506121530 | 30 | 360 | 0.0 | 0.0 | 0.00 | 0.13 | 0.00 | 93 | 1019.5 |
| 20260506120030 | 30 | 360 | 0.0 | 0.0 | 0.00 | 0.13 | 0.00 | 94 | 1019.1 |
| 20260506114536 | 30 | 360 | 0.0 | 0.0 | 0.00 | 0.14 | 0.00 | 93 | 1019.2 |
| 20260506113027 | 30 | 360 | 0.0 | 0.0 | 0.00 | 0.14 | 0.00 | 93 | 1019.0 |
| 20260506111525 | 30 | 360 | 0.0 | 0.0 | 0.00 | 0.14 | 0.00 | 93 | 1018.8 |
| 20260506110024 | 30 | 326 | 0.0 | 0.0 | 0.00 | 0.14 | 0.00 | 94 | 1018.5 |
| 20260506104522 | 30 | 326 | 0.0 | 0.0 | 0.00 | 0.16 | 0.00 | 93 | 1018.4 |
| 20260506103023 | 30 | 325 | 0.0 | 0.0 | 0.00 | 0.16 | 0.00 | 94 | 1018.4 |
| 20260506101520 | 30 | 326 | 0.0 | 0.0 | 0.00 | 0.16 | 0.00 | 93 | 1018.4 |
| 20260506100120 | 30 | 360 | 0.0 | 0.0 | 0.00 | 0.16 | 0.00 | 93 | 1018.5 |
| 20260506094519 | 30 | 325 | 0.0 | 0.0 | 0.00 | 0.23 | 0.00 | 93 | 1018.7 |
| 20260506093016 | 30 | 327 | 0.0 | 0.0 | 0.00 | 0.23 | 0.00 | 93 | 1018.3 |
| 20260506091518 | 30 | 360 | 0.0 | 0.0 | 0.00 | 0.23 | 0.00 | 93 | 1018.2 |
| 20260506084511 | 31 | 360 | 0.0 | 0.0 | 0.00 | 0.24 | 0.00 | 93 | 1018.1 |
| 20260506083010 | 31 | 360 | 0.0 | 0.0 | 0.00 | 0.24 | 0.00 | 93 | 1018.1 |
| 20260506081511 | 31 | 308 | 0.0 | 0.0 | 0.00 | 0.24 | 0.00 | 93 | 1017.9 |
| 20260506073005 | 31 | 311 | 0.0 | 0.0 | 0.00 | 0.24 | 0.00 | 93 | 1017.9 |
| 20260506071502 | 31 | 360 | 0.0 | 0.0 | 0.00 | 0.24 | 0.00 | 93 | 1017.8 |
| 20260506061556 | 32 | 310 | 0.0 | 0.0 | 0.00 | 0.24 | 0.00 | 93 | 1017.1 |
| 20260506044549 | 32 | 312 | 0.0 | 0.0 | 0.00 | 0.24 | 0.24 | 93 | 1016.1 |
| 20260506043048 | 32 | 312 | 0.0 | 0.0 | 0.01 | 0.24 | 0.24 | 93 | 1016.2 |
| 20260506041553 | 31 | 312 | 0.0 | 0.0 | 0.01 | 0.24 | 0.24 | 93 | 1016.3 |
| 20260506040044 | 32 | 312 | 0.0 | 0.0 | 0.01 | 0.24 | 0.24 | 93 | 1015.8 |
| 20260506034544 | 32 | 312 | 0.0 | 0.0 | 0.01 | 0.31 | 0.24 | 93 | 1015.9 |
| 20260506033042 | 32 | 312 | 0.0 | 0.0 | 0.00 | 0.30 | 0.23 | 93 | 1015.7 |
| 20260506031540 | 32 | 312 | 0.0 | 1.7 | 0.00 | 0.30 | 0.23 | 93 | 1015.4 |
| 20260506030056 | 32 | 302 | 0.0 | 1.7 | 0.00 | 0.30 | 0.23 | 93 | 1014.8 |
| 20260506024549 | 32 | 301 | 0.0 | 0.9 | 0.00 | 0.37 | 0.23 | 93 | 1014.6 |
| 20260506023034 | 32 | 302 | 0.0 | 1.7 | 0.00 | 0.37 | 0.23 | 93 | 1014.1 |
| 20260506021532 | 32 | 300 | 0.0 | 0.9 | 0.00 | 0.37 | 0.23 | 93 | 1013.9 |
| 20260506020029 | 32 | 299 | 0.0 | 2.6 | 0.00 | 0.37 | 0.23 | 93 | 1013.4 |
| 20260506014528 | 32 | 360 | 0.0 | 2.6 | 0.00 | 0.37 | 0.23 | 92 | 1013.2 |
| 20260506013026 | 32 | 300 | 0.0 | 1.7 | 0.00 | 0.37 | 0.23 | 92 | 1012.8 |
| 20260506011533 | 32 | 288 | 0.0 | 3.5 | 0.00 | 0.37 | 0.23 | 93 | 1012.8 |
| 20260506010023 | 32 | 299 | 0.0 | 1.7 | 0.00 | 0.37 | 0.23 | 93 | 1012.5 |
| 20260506004540 | 32 | 298 | 0.0 | 3.5 | 0.00 | 0.37 | 0.23 | 92 | 1012.4 |
| 20260506003028 | 32 | 298 | 0.0 | 0.0 | 0.00 | 0.37 | 0.23 | 92 | 1012.3 |
| 20260506001522 | 32 | 303 | 0.0 | 0.0 | 0.00 | 0.37 | 0.23 | 92 | 1012.3 |
| 20260506000022 | 32 | 298 | 0.0 | 0.0 | 0.00 | 0.37 | 0.23 | 92 | 1012.0 |
| 20260505234516 | 32 | 297 | 0.0 | 0.0 | 0.00 | 0.37 | 0.23 | 92 | 1011.8 |
| 20260505233014 | 32 | 360 | 0.0 | 0.9 | 0.00 | 0.37 | 0.23 | 92 | 1011.2 |
| 20260505231520 | 32 | 316 | 0.0 | 1.7 | 0.00 | 0.37 | 0.23 | 92 | 1011.4 |
| 20260505230014 | 32 | 302 | 0.0 | 1.7 | 0.00 | 0.37 | 0.23 | 92 | 1011.3 |
| 20260505224511 | 32 | 290 | 0.0 | 1.7 | 0.00 | 0.37 | 0.23 | 92 | 1011.4 |
| 20260505223008 | 32 | 279 | 0.0 | 1.7 | 0.00 | 0.37 | 0.23 | 91 | 1010.9 |
| 20260505221506 | 33 | 360 | 0.0 | 1.7 | 0.00 | 0.37 | 0.23 | 92 | 1010.1 |
| 20260505220008 | 34 | 291 | 0.0 | 2.6 | 0.01 | 0.37 | 0.23 | 92 | 1010.3 |
| 20260505214504 | 34 | 360 | 0.0 | 2.6 | 0.01 | 0.37 | 0.23 | 92 | 1009.8 |
| 20260505213007 | 34 | 29 | 0.0 | 2.6 | 0.03 | 0.37 | 0.23 | 92 | 1009.6 |
| 20260505211503 | 34 | 355 | 0.0 | 3.5 | 0.03 | 0.37 | 0.23 | 91 | 1009.8 |
| 20260505210003 | 37 | 55 | 0.9 | 3.5 | 0.02 | 0.36 | 0.22 | 92 | 1009.3 |
| 20260505204502 | 37 | 12 | 0.0 | 0.9 | 0.02 | 0.36 | 0.22 | 91 | 1009.6 |
| 20260505203009 | 37 | 12 | 0.0 | 2.6 | 0.00 | 0.34 | 0.20 | 92 | 1009.7 |
| 20260505201503 | 37 | 42 | 0.0 | 1.7 | 0.00 | 0.34 | 0.20 | 92 | 1009.9 |
| 20260505200100 | 37 | 360 | 0.0 | 1.7 | 0.00 | 0.34 | 0.20 | 92 | 1010.0 |
| 20260505194601 | 37 | 9 | 0.0 | 1.7 | 0.00 | 0.34 | 0.20 | 92 | 1009.7 |
| 20260505193125 | 37 | 16 | 0.0 | 0.9 | 0.01 | 0.34 | 0.20 | 92 | 1009.7 |
| 20260505191606 | 37 | 28 | 0.0 | 1.7 | 0.01 | 0.34 | 0.20 | 92 | 1009.3 |
| 20260505190056 | 37 | 13 | 0.0 | 0.9 | 0.01 | 0.34 | 0.20 | 92 | 1009.2 |